Theta_e
308 306 303 302 302 301 302 302 302 302 303 304 304 304 306 306 306 306 310 313 312 310 309 307 306 308 310 315 318 322 329 331 330 331 329 317 319 311 311 312 311 309 310 308 305
303 302 301 301 301 301 301 301 301 301 301 302 302 303 303 303 303 304 307 309 311 310 309 307 309 309 312 315 319 323 329 330 326 327 326 318 316 316 312 313 311 307 307 306 305
300 300 300 300 300 300 300 300 300 300 300 300 301 301 301 301 303 306 306 305 306 307 307 307 307 309 310 313 318 323 327 327 323 317 313 316 313 313 313 318 316 312 306 304 303
299 299 299 299 299 299 299 299 299 299 299 299 300 300 300 301 308 304 305 306 306 306 306 306 307 310 311 313 314 319 321 322 319 313 313 313 312 312 311 316 313 312 309 304 304
299 299 299 299 299 299 298 298 299 299 299 299 299 299 299 302 305 304 305 304 303 303 304 306 309 311 313 312 313 316 317 315 314 311 311 310 312 313 314 312 310 309 306 304 305
299 299 299 298 298 298 298 298 298 298 298 299 299 299 300 304 303 302 303 304 304 301 303 306 309 310 311 311 312 312 313 313 310 312 310 312 314 310 317 318 307 306 305 305 305
300 299 298 298 298 298 297 297 298 298 298 299 299 299 302 303 301 300 300 301 303 302 304 305 307 308 310 311 309 308 310 310 309 308 310 307 315 312 313 311 308 306 306 305 305
299 298 298 298 298 297 297 297 297 298 299 299 299 301 303 302 301 300 300 300 301 302 301 303 306 308 308 307 307 309 309 310 310 306 308 311 315 317 315 307 309 308 307 305 304
299 299 298 298 297 297 296 297 298 299 300 300 301 300 303 299 299 300 300 300 300 300 301 303 305 308 307 310 311 311 312 312 311 305 307 309 312 312 306 307 309 309 307 305 304
301 299 298 297 297 296 296 297 298 298 299 300 298 299 299 298 298 298 299 300 301 302 303 304 306 308 309 310 310 312 313 312 312 308 304 307 308 310 303 305 307 310 308 306 304
305 299 298 297 297 296 296 297 298 298 298 301 301 300 297 297 297 296 298 299 301 303 305 305 306 307 308 309 309 310 310 312 311 305 305 307 308 309 309 304 305 307 308 306 304
307 303 299 297 297 296 296 297 299 298 300 299 298 298 297 296 297 296 297 301 302 304 304 304 304 306 306 306 308 308 308 308 308 303 301 305 306 307 307 307 305 305 306 306 304
307 304 300 297 296 296 296 296 297 296 300 298 296 297 296 297 299 298 297 300 302 303 304 304 303 300 303 304 305 306 306 307 307 306 302 303 305 306 306 306 305 305 305 305 304
307 304 302 297 295 296 296 296 297 296 306 302 296 295 295 296 298 295 297 299 301 303 303 303 300 300 301 303 304 304 305 305 305 305 304 303 304 307 309 308 305 304 303 304 304
307 305 302 296 297 295 296 295 296 295 308 300 294 293 294 297 295 295 295 296 301 300 301 302 299 299 300 301 302 303 300 302 304 304 304 304 303 305 307 306 307 304 302 302 303
307 305 302 298 295 295 295 295 295 306 306 298 294 295 295 295 295 294 296 296 296 298 298 298 294 297 300 296 297 299 300 300 301 302 303 303 304 306 308 308 306 307 305 301 302
309 305 303 298 296 296 295 295 305 307 300 302 297 295 297 296 295 296 297 297 300 300 300 297 297 295 295 298 297 299 301 304 305 304 306 302 305 306 307 307 304 304 305 303 301
307 305 302 301 294 296 294 301 303 309 310 295 296 296 298 296 297 296 297 299 299 299 302 302 303 296 295 299 300 299 301 306 308 308 307 298 301 305 306 305 303 301 300 301 301
307 302 300 297 298 295 297 301 306 308 300 296 295 298 300 295 297 296 297 300 302 299 304 303 300 293 292 294 296 299 299 300 305 298 301 303 305 305 305 305 304 303 300 298 299
305 301 300 295 295 294 300 301 304 297 296 296 302 301 307 299 297 297 298 300 298 297 297 301 303 292 291 292 294 296 296 299 300 305 305 305 306 306 307 306 305 304 303 301 299
303 300 297 297 295 294 300 301 299 296 295 296 298 302 301 299 299 299 303 298 296 295 297 303 301 294 291 294 297 294 297 297 299 303 305 304 306 309 307 304 302 302 300 300 300
302 301 296 295 296 295 299 301 294 295 294 295 295 298 299 299 300 300 303 299 295 295 295 300 305 300 298 292 291 292 298 299 302 304 301 302 304 305 306 302 299 299 299 298 298
298 294 294 294 298 297 297 294 294 296 296 297 298 298 299 298 302 299 299 294 294 297 300 297 301 301 299 294 291 293 294 297 299 298 303 305 305 301 302 303 301 299 299 298 297
297 297 293 294 295 298 299 300 297 296 296 297 298 295 296 296 299 304 298 293 293 295 296 296 305 303 305 302 298 294 294 294 298 301 300 301 301 302 302 302 302 302 301 300 297
296 296 294 297 296 296 295 299 299 298 295 295 298 299 300 300 297 297 299 293 292 293 296 299 298 297 298 296 294 296 297 295 295 296 299 299 300 302 302 302 302 300 300 299 296
295 296 295 296 294 295 296 297 297 298 298 297 295 297 296 298 300 300 299 297 299 292 296 292 301 293 298 298 295 295 296 295 296 296 296 297 297 298 299 299 299 299 299 298 298
290 291 292 294 296 296 297 296 297 297 297 296 297 297 297 298 297 297 298 298 299 297 295 296 299 297 300 295 296 298 297 297 298 299 298 298 299 300 300 300 300 300 299 298 298
Wind_Speed
18 18 16 16 17 18 16 17 17 16 15 16 16 15 14 13 13 15 14 15 12 11 9 8 7 6 5 7 8 5 8 12 15 10 8 1 9 2 4 2 5 5 1 4 23
17 17 17 16 17 17 16 16 16 16 16 15 15 14 14 13 13 16 20 15 14 12 9 6 6 6 8 6 6 10 11 16 7 9 8 8 10 2 4 10 9 6 8 13 20
17 18 17 16 16 17 15 14 14 14 15 15 14 13 12 10 9 10 17 18 17 16 13 9 8 6 11 9 10 8 14 9 2 1 3 5 9 7 8 11 15 14 15 19 21
17 17 17 16 16 16 16 13 12 11 13 12 12 11 10 7 6 4 7 6 7 9 11 8 7 7 8 11 13 9 13 8 2 3 3 6 4 5 12 13 6 8 19 21 23
18 18 17 17 16 15 15 14 12 12 12 11 10 9 8 8 10 10 5 3 2 4 7 8 11 12 12 8 9 13 13 6 6 5 7 7 7 10 10 12 14 6 17 21 22
18 18 16 16 16 15 14 14 13 12 11 10 9 9 9 14 12 13 13 11 7 5 5 8 4 10 10 10 12 3 7 7 6 7 6 7 4 5 13 19 15 13 16 20 22
18 18 17 16 15 14 13 13 12 11 11 10 9 10 11 12 11 11 11 11 10 9 5 8 6 7 3 5 5 3 8 6 11 7 4 6 9 17 23 19 17 18 19 21 23
17 17 17 16 15 14 13 12 12 10 9 8 7 7 8 15 19 12 6 7 9 10 10 8 8 5 4 3 3 5 5 11 2 9 5 10 20 14 25 20 22 22 22 23 26
18 16 15 15 14 12 11 10 8 7 5 3 4 5 5 6 10 12 14 8 7 8 9 7 7 6 5 8 9 10 13 14 8 14 6 13 16 3 8 16 20 21 22 24 25
17 18 16 14 13 11 10 7 6 5 4 4 6 5 8 3 7 7 11 12 4 7 5 6 7 8 10 12 13 14 16 14 14 7 10 12 21 14 11 15 20 21 23 25 27
18 17 16 15 12 11 8 3 2 4 11 8 3 2 2 7 5 5 8 10 6 9 8 12 10 15 18 18 19 19 15 17 12 4 6 17 21 20 21 18 20 25 26 28 29
19 17 16 15 12 12 10 7 6 3 7 17 16 12 7 5 3 5 10 9 10 12 12 6 16 15 7 9 15 16 19 20 18 5 5 16 24 22 21 24 29 29 28 31 28
18 17 17 15 11 11 13 13 6 4 6 5 11 7 6 10 4 9 12 5 8 12 14 14 1 5 4 9 11 16 18 18 17 5 13 15 23 23 22 31 33 32 33 31 35
17 16 16 12 6 10 9 11 8 3 3 6 5 5 7 6 6 10 14 6 6 10 10 11 2 5 6 11 12 15 9 12 15 7 8 4 13 16 14 11 15 28 31 36 39
19 15 13 10 6 5 5 8 7 2 4 6 5 5 8 7 7 3 9 4 8 7 6 3 4 7 11 6 8 2 3 5 10 12 13 16 8 7 12 16 18 20 32 37 37
22 15 13 11 12 5 5 9 7 2 9 4 5 6 6 5 4 5 4 2 3 3 4 2 0 3 1 3 0 3 2 2 4 6 8 15 15 19 15 14 15 15 25 32 34
23 16 16 11 9 9 8 10 2 6 1 4 4 7 9 7 6 7 8 10 7 6 10 5 7 4 2 4 2 7 6 3 4 5 8 1 11 19 11 18 9 11 14 16 27
25 17 15 17 11 9 14 2 7 1 2 1 3 6 6 9 5 8 7 8 12 6 2 7 6 10 9 3 4 13 7 5 7 8 10 3 8 6 8 16 15 14 12 12 19
21 19 12 16 16 13 7 6 6 2 4 8 5 5 5 5 3 8 10 6 6 14 9 6 4 3 1 1 2 7 7 3 5 2 5 9 16 8 14 15 12 14 8 12 14
27 19 14 14 15 17 3 17 5 1 1 4 7 8 8 7 8 10 11 5 5 10 3 1 2 0 4 2 3 2 3 3 4 5 8 9 8 10 12 13 6 8 8 13 15
25 6 7 20 14 8 8 9 8 7 3 4 4 2 3 6 8 6 3 3 3 7 6 1 0 4 2 9 10 5 5 5 3 5 5 8 6 3 5 6 9 11 15 16 12
17 3 8 18 4 3 10 4 5 3 2 3 2 4 6 6 7 8 7 4 8 10 10 4 1 4 6 4 2 3 6 10 5 6 6 6 11 10 12 4 4 8 7 12 7
0 3 13 25 5 6 5 6 6 6 6 0 3 6 6 6 4 7 6 4 11 7 5 8 3 4 4 1 1 5 7 8 8 4 14 8 7 2 2 5 6 4 8 10 11
5 2 2 12 6 4 10 8 10 12 10 9 4 4 5 7 8 2 4 2 7 4 4 7 4 6 10 4 3 4 6 12 10 7 12 21 24 21 20 20 21 30 34 22 8
7 2 0 1 4 7 8 5 7 8 5 5 5 19 14 7 3 6 6 3 2 4 4 2 5 4 10 13 6 7 8 11 15 20 13 21 25 19 15 14 19 26 29 22 17
4 3 2 4 6 6 5 4 11 8 4 6 13 10 12 16 15 1 6 6 6 3 6 2 7 2 5 12 12 15 16 13 21 22 24 25 36 23 29 34 34 37 35 30 25
7 4 3 6 3 3 5 3 3 3 9 16 10 5 12 18 16 22 12 13 10 7 10 7 5 4 7 2 8 14 20 24 21 19 23 22 35 20 23 23 27 33 30 27 28
Wind_Direction
276 279 282 282 281 277 275 274 272 268 267 267 268 268 264 266 266 264 264 253 259 259 263 273 272 257 242 228 214 231 249 250 255 279 272 77 218 199 237 187 185 196 229 162 173
280 278 278 277 277 274 273 273 272 273 271 268 264 266 267 265 265 261 255 256 255 255 264 264 253 230 228 233 217 216 241 254 314 217 243 221 238 248 239 207 216 205 213 157 180
283 281 279 277 274 274 269 266 270 272 270 268 268 264 262 261 281 240 256 253 251 249 248 245 239 221 234 227 215 222 244 281 197 167 301 239 246 188 231 239 233 220 186 177 175
281 280 281 278 272 272 270 264 261 266 267 267 265 260 253 227 252 247 239 238 238 237 228 228 219 219 244 221 223 244 247 255 217 190 120 283 277 231 225 253 249 205 203 188 184
283 284 282 280 275 270 265 263 258 256 260 264 264 253 222 228 247 247 226 186 197 213 205 218 227 232 244 243 230 245 251 222 215 215 212 224 235 270 241 256 252 217 193 189 190
281 283 283 280 278 273 267 263 262 261 265 261 256 240 211 241 251 245 240 241 235 224 221 211 229 239 276 253 236 358 253 255 241 219 238 238 232 262 257 229 236 204 196 197 198
279 283 281 281 279 272 266 265 265 266 268 265 248 217 228 240 250 238 240 235 228 220 217 216 220 213 253 236 231 263 263 236 230 211 237 240 247 226 245 213 215 211 199 200 203
282 284 283 278 275 271 260 262 266 267 265 258 236 191 251 240 241 233 219 226 223 219 218 214 206 220 237 164 195 236 248 255 151 173 200 202 258 249 219 198 213 209 204 201 203
290 283 282 280 275 268 257 256 260 258 251 208 170 193 245 252 229 227 225 218 218 214 214 206 177 220 183 225 241 214 258 229 251 204 179 197 263 196 184 213 224 215 211 204 202
300 287 281 277 273 261 252 248 250 253 222 211 218 224 239 211 211 211 213 200 179 173 167 182 204 217 219 214 230 239 234 260 251 182 218 225 249 253 208 223 233 224 217 212 208
306 292 282 276 263 246 231 200 231 251 214 207 225 267 168 211 191 203 189 180 167 200 205 200 216 218 225 228 250 274 278 267 273 117 255 241 254 258 249 216 229 229 222 218 215
296 309 285 275 260 233 218 202 240 253 282 237 238 229 228 183 180 209 175 184 195 210 203 191 231 239 243 282 244 254 256 261 270 167 222 275 270 265 257 243 229 230 224 220 215
281 294 304 278 258 237 225 224 257 277 263 227 221 216 214 212 235 189 180 200 216 217 206 229 120 62 203 231 236 242 250 259 264 277 238 276 275 258 249 238 238 230 231 223 213
270 286 304 284 259 241 239 232 229 247 290 197 207 197 188 166 226 198 185 196 202 226 220 244 145 178 199 234 226 253 258 257 264 256 263 169 290 285 293 237 227 228 226 223 213
265 274 293 253 218 201 230 213 198 140 266 100 154 169 168 194 131 175 187 192 211 183 190 188 192 200 225 241 188 270 12 250 262 258 276 255 263 284 258 256 239 228 227 223 217
274 258 276 275 227 217 219 171 154 148 243 145 137 166 161 191 155 127 163 150 110 170 235 315 41 246 46 87 18 104 139 193 234 258 253 242 239 276 256 254 248 250 235 225 217
259 240 236 257 228 206 165 149 156 218 64 176 179 180 206 171 175 191 175 183 183 165 212 176 206 142 192 161 151 200 189 227 235 211 251 321 243 246 299 292 257 265 274 227 217
228 222 229 226 212 192 165 141 225 323 224 66 137 162 201 160 187 186 181 210 221 230 166 201 219 182 163 243 200 193 218 237 255 246 283 115 240 254 251 285 277 276 267 253 216
219 213 211 202 221 179 171 207 224 200 128 163 154 185 203 212 215 185 209 215 202 196 207 189 182 123 68 343 305 161 215 14 311 152 270 247 253 256 249 262 276 274 275 257 238
214 200 207 199 186 174 186 224 238 350 119 189 224 206 189 184 191 199 192 189 203 200 52 256 188 29 110 203 202 280 344 169 211 248 252 248 261 255 279 278 21 15 313 268 240
207 181 207 189 169 176 218 227 247 253 214 224 289 234 227 179 198 205 204 177 201 162 149 73 270 112 161 202 190 172 211 221 290 251 263 284 266 11 344 35 344 338 327 326 278
198 187 183 181 140 192 237 223 6 278 197 275 265 285 210 173 201 216 218 217 167 162 157 174 112 228 209 96 8 338 236 193 224 210 239 287 258 290 291 321 294 299 320 351 328
357 134 173 173 181 208 241 290 275 282 270 189 268 234 265 232 242 200 198 131 169 178 165 167 202 227 197 187 22 222 208 231 257 296 246 264 250 137 213 308 287 293 350 346 339
325 357 16 195 314 277 217 235 233 234 252 215 228 312 252 254 240 247 237 143 194 196 152 167 182 243 247 57 76 203 215 224 222 248 263 242 270 270 284 291 295 303 301 316 288
26 62 92 232 260 269 321 332 244 231 229 276 244 226 231 242 217 221 208 133 166 186 176 206 229 217 260 268 226 241 222 204 216 233 245 270 272 272 281 289 295 294 291 292 279
8 343 290 242 222 258 227 265 260 283 235 224 234 253 237 242 247 278 255 187 238 174 203 68 218 124 263 256 244 254 243 233 242 240 257 265 270 265 273 276 271 273 274 277 274
351 306 298 275 228 242 201 231 301 328 228 239 265 288 239 247 259 266 266 258 246 183 187 169 198 181 252 346 290 270 242 228 243 240 238 252 258 282 274 269 268 275 279 277 275